Bedford, MA

5:52 AM EDT on July 22, 2017 (GMT -0400)
Hanscom

Weather History for KBED - December, 2012

Change the Weather History Date:

Saturday, December 15, 2012

  Actual Average Record
Temperature  
Mean Temperature 32 °F -  
Max Temperature 41 °F 38 °F 65 °F (1975)
Min Temperature 24 °F 21 °F -6 °F (2005)
Degree Days  
Heating Degree Days 32    
Moisture  
Dew Point 20 °F    
Average Humidity 66    
Maximum Humidity 89    
Minimum Humidity 32    
Precipitation  
Precipitation 0.00 in - - ()
Sea Level Pressure  
Sea Level Pressure 30.32 in    
Wind  
Wind Speed 3 mph (North)    
Max Wind Speed 12 mph    
Max Gust Speed -    
Visibility 10 miles    
Events      
Averages and records for this station are not official NWS values.
T = Trace of Precipitation, MM = Missing Value Source: NWS Daily Summary

Daily Weather History Graph

Daily Weather History Graph

Search for Another Location

Airport or City:

Trip Planner

Search our weather history database for the weather conditions in past years. The results will help you decide how hot, cold, wet, or windy it might be!

Date:

Astronomy

Dec. 15, 2012 Rise Set
Actual Time 7:08 AM EST 4:13 PM EST
Civil Twilight 6:36 AM EST 4:45 PM EST
Nautical Twilight 6:00 AM EST 5:20 PM EST
Astronomical Twilight 5:26 AM EST 5:54 PM EST
Moon 8:56 AM EST (12/15) 7:16 PM EST (12/15)
Length of Visible Light 10h 09m
Length of Day
9h 05m
Waxing Crescent, 8% of the Moon is Illuminated
Dec 15
Waxing Crescent
Dec 20
First Quarter
Dec 28
Full
Jan 4
Last Quarter
Jan 11
New

Hourly Weather History & Observations

Time (EST) Temp. Windchill Dew Point Humidity Pressure Visibility Wind Dir Wind Speed Gust Speed Precip Events Conditions
12:56 AM 28.0 °F 24.2 °F 23.0 °F 81% 30.22 in 10.0 mi West 3.5 mph - N/A   Clear
1:56 AM 28.0 °F 24.2 °F 23.0 °F 81% 30.22 in 10.0 mi West 3.5 mph - N/A   Mostly Cloudy
2:56 AM 27.0 °F - 24.1 °F 89% 30.25 in 10.0 mi Calm Calm - N/A   Partly Cloudy
3:56 AM 27.0 °F - 23.0 °F 85% 30.26 in 10.0 mi Calm Calm - N/A   Overcast
4:56 AM 27.0 °F - 23.0 °F 85% 30.27 in 10.0 mi Calm Calm - N/A   Mostly Cloudy
5:56 AM 24.1 °F - 21.0 °F 88% 30.30 in 10.0 mi Calm Calm - N/A   Clear
6:56 AM 24.1 °F - 19.9 °F 84% 30.32 in 10.0 mi Calm Calm - N/A   Clear
7:56 AM 30.9 °F 23.5 °F 23.0 °F 72% 30.32 in 10.0 mi NNW 8.1 mph - N/A   Clear
8:56 AM 35.1 °F 26.9 °F 21.9 °F 59% 30.34 in 10.0 mi NNW 11.5 mph - N/A   Clear
9:56 AM 37.0 °F 29.3 °F 19.9 °F 50% 30.35 in 10.0 mi NNW 11.5 mph - N/A   Partly Cloudy
10:56 AM 37.9 °F 35.5 °F 17.1 °F 43% 30.35 in 10.0 mi Variable 3.5 mph - N/A   Partly Cloudy
11:56 AM 39.0 °F 35.7 °F 17.1 °F 41% 30.33 in 10.0 mi North 4.6 mph - N/A   Clear
12:56 PM 41.0 °F 36.4 °F 16.0 °F 36% 30.32 in 10.0 mi North 6.9 mph - N/A   Clear
1:56 PM 41.0 °F 38.0 °F 14.0 °F 33% 30.31 in 10.0 mi Variable 4.6 mph - N/A   Clear
2:56 PM 41.0 °F 37.1 °F 12.9 °F 32% 30.32 in 10.0 mi North 5.8 mph - N/A   Clear
3:56 PM 36.0 °F 32.1 °F 14.0 °F 41% 30.32 in 10.0 mi NE 4.6 mph - N/A   Clear
4:56 PM 33.1 °F 26.9 °F 19.9 °F 59% 30.34 in 10.0 mi East 6.9 mph - N/A   Clear
5:56 PM 30.0 °F 25.2 °F 19.9 °F 66% 30.35 in 10.0 mi ENE 4.6 mph - N/A   Clear
6:56 PM 28.4 °F - 19.4 °F 69% 30.30 in 10.0 mi Calm Calm - N/A   Clear
7:56 PM 28.0 °F - 21.0 °F 75% 30.37 in 10.0 mi Calm Calm - N/A   Clear
8:56 PM 26.1 °F - 19.9 °F 78% 30.38 in 10.0 mi Calm Calm - N/A   Clear
9:56 PM 25.0 °F - 19.9 °F 81% 30.37 in 10.0 mi Calm Calm - N/A   Partly Cloudy
10:56 PM 25.0 °F - 21.0 °F 85% 30.37 in 10.0 mi Calm Calm - N/A   Mostly Cloudy
11:56 PM 27.0 °F - 19.9 °F 75% 30.36 in 10.0 mi Calm Calm - N/A   Clear